YB2SAT-13 Weather Reports


time (UTC)temp
C
wind
direction
speed
KPH
gust
KPH
rain 1hr
cm
rain 24hr
cm
rain mn
cm
humidity
%
barometer
mb
20260504213105 27 165 6.4 8.0 0.00 0.00 0.00 93 1009.0
20260504211604 28 158 6.4 8.0 0.00 0.00 0.00 93 1009.0
20260504210111 27 158 6.4 8.0 0.00 0.00 0.00 93 1009.0
20260504204604 27 158 6.4 8.0 0.00 0.00 0.00 93 1009.0
20260504203106 27 158 6.4 8.0 0.00 0.00 0.00 93 1009.0
20260504201602 28 164 6.4 8.0 0.00 0.00 0.00 93 1009.0
20260504200107 28 164 6.4 8.0 0.00 0.00 0.00 93 1009.0
20260504194603 28 164 6.4 8.0 0.00 0.00 0.00 93 1009.0
20260504193107 28 164 6.4 8.0 0.00 0.00 0.00 93 1009.0
20260504191603 28 171 4.8 4.8 0.00 0.00 0.00 94 1009.0
20260504190101 27 0 3.2 0.0 0.00 0.00 0.00 94 1009.0
20260504184601 26 0 3.2 0.0 0.00 0.00 0.00 94 1009.0
20260504183101 26 0 1.6 0.0 0.00 0.00 0.00 94 1010.0
20260504181601 25 0 1.6 0.0 0.00 0.00 0.00 94 1010.0
20260504180101 27 80 3.2 0.0 0.00 0.00 0.00 100 1010.0
20260504174601 26 80 3.2 0.0 0.00 0.00 0.00 100 1010.0
20260504173101 26 80 3.2 0.0 0.00 0.00 0.00 100 1010.0
20260504171601 25 80 3.2 0.0 0.00 0.00 0.00 100 1010.0
20260504130105 27 180 12.9 0.0 0.00 0.00 0.00 83 1011.0
20260504120108 28 180 12.9 0.0 0.00 0.00 0.00 83 1010.0
20260504110111 28 180 12.9 0.0 0.00 0.00 0.00 83 1009.0
20260504100114 28 220 4.8 0.0 0.00 0.00 0.00 83 1008.0
20260504090113 32 330 17.7 0.0 0.00 0.00 0.00 74 1008.0
20260504081604 33 60 20.9 0.0 0.00 0.00 0.00 71 1008.0
20260504080112 32 60 20.9 0.0 0.00 0.00 0.00 71 1008.0
20260504070109 33 60 20.9 0.0 0.00 0.00 0.00 71 1008.0
20260504060118 32 120 16.1 0.0 0.00 0.00 0.00 71 1008.0
20260504050103 32 73 12.9 11.3 0.00 0.00 0.00 70 1009.0
20260504044600 32 77 12.9 12.9 0.00 0.00 0.00 70 1009.0
20260504043101 32 73 12.9 11.3 0.08 0.00 0.00 70 1009.0
20260504041600 32 77 11.3 11.3 0.00 0.00 0.00 73 1010.0
20260504040104 32 77 11.3 11.3 0.00 0.00 0.00 70 1010.0
20260504034603 32 77 11.3 11.3 0.00 0.00 0.00 70 1010.0
20260504033105 32 77 11.3 11.3 0.00 0.00 0.00 70 1010.0
20260504031601 32 88 9.7 11.3 0.00 0.00 0.00 76 1011.0
20260504030105 32 88 9.7 11.3 0.00 0.00 0.00 73 1011.0
20260504024600 31 88 9.7 11.3 0.00 0.00 0.00 74 1011.0
20260504023104 31 88 9.7 11.3 0.00 0.00 0.00 74 1011.0
20260504021601 30 98 8.0 11.3 0.00 0.00 0.00 82 1011.0
20260504020108 30 98 8.0 11.3 0.00 0.00 0.00 78 1011.0
20260504014601 30 98 8.0 11.3 0.00 0.00 0.00 79 1011.0
20260504013109 30 98 8.0 11.3 0.00 0.00 0.00 79 1011.0
20260504011605 29 115 6.4 9.7 0.00 0.00 0.00 85 1011.0
20260504010105 28 115 6.4 9.7 0.00 0.00 0.00 84 1011.0
20260504004604 27 115 6.4 9.7 0.00 0.00 0.00 85 1011.0
20260504003110 27 115 6.4 9.7 0.00 0.00 0.00 85 1011.0
20260504001602 27 137 6.4 9.7 0.00 0.00 0.00 90 1010.0
20260504000110 27 137 6.4 9.7 0.00 0.00 0.00 90 1010.0
20260503234603 27 130 6.4 11.3 0.00 0.00 0.00 91 1010.0
20260503233106 27 130 6.4 11.3 0.00 0.00 0.00 91 1010.0
20260503231601 27 146 6.4 9.7 0.00 0.00 0.00 93 1010.0
20260503230103 27 146 6.4 9.7 0.00 0.00 0.00 93 1010.0
20260503224601 27 146 6.4 9.7 0.00 0.00 0.00 93 1010.0
20260503223103 27 146 6.4 9.7 0.00 0.00 0.00 93 1010.0
20260503221601 27 155 8.0 11.3 0.00 0.00 0.00 93 1009.0
20260503220109 27 155 8.0 11.3 0.00 0.00 0.00 93 1009.0
20260503214601 27 155 8.0 11.3 0.00 0.00 0.00 93 1009.0